Regional Weather Roundup
Issued by NWS Jackson, KY

Home | Current Version | Previous Version | Graphics & Text | Print | Product List | Glossary On
Versions: 1 2 3 4 5 6 7 8 9 10 11 12 13 14 15 16 17 18 19 20 21 22 23 24 25 26 27 28 29 30 31 32 33 34 35 36 37 38 39 40 41 42 43 44 45 46 47 48 49 50
784
ASUS43 KJKL 290710
RWRJKL

EAST KENTUCKY HOURLY WEATHER ROUNDUP
NATIONAL WEATHER SERVICE JACKSON KY
300 AM EDT SUN MAY 29 2016

NOTE: "FAIR" INDICATES FEW OR NO CLOUDS BELOW 12,000 FEET WITH
NO SIGNIFICANT WEATHER AND/OR OBSTRUCTIONS TO VISIBILITY.

* THESE REPORTS ARE NOT UNDER NWS QUALITY CONTROL AND MAY NOT
  REPORT WEATHER SUCH AS PRECIPITATION AND FOG.

KYZ079-080-083-085-087-088-110-112-115-119-120-290800
...EASTERN KENTUCKY...

CITY           SKY/WX    TMP DP  RH WIND       PRES   REMARKS
JACKSON        CLOUDY    70  65  84 CALM      30.14R
LONDON         CLOUDY    66  63  90 CALM      30.14S
SOMERSET*      MOCLDY    64  64 100 CALM      30.14S
MONTICELLO*    CLOUDY    65  63  93 NE7       30.15S
WILLIAMSBURG*  CLOUDY    61  61 100 CALM      30.14F
MIDDLESBORO*   CLOUDY    64  64  98 CALM      30.16R
HARLAN APT*      N/A     63  61  94 CALM      30.17R
HAZARD APT*    SUNNY     66  66 100 CALM      30.14
BLACK MTN*       N/A     63  55  77 S7          N/A
PIKE CO APT*     N/A     68  67  96 S3        30.14S
BIG SANDY APT* CLOUDY    68  67  98 CALM      30.13S
MOREHEAD APT*  PTSUNNY   68  63  83 CALM      30.14S
ASHLAND*       MOCLDY    66  64  94 CALM      30.08S
$$

KYZ035-036-041-042-044-050-067-078-099-290800
...CENTRAL KENTUCKY...

CITY           SKY/WX    TMP DP  RH WIND       PRES   REMARKS
MT STERLING*   CLOUDY    64  64 100 CALM      30.14S
FLEMING/MASON* MOCLDY    67  63  86 S3        30.12F
DANVILLE*      CLOUDY    64  63  94 CALM      30.13S
RICHMOND*      CLOUDY    66  63  88 SE3       30.12S
LEXINGTON      MOCLDY    67  62  84 S6        30.11F
FRANKFORT      CLOUDY    68  62  81 CALM      30.09F
LOUISVILLE     CLOUDY    70  64  81 SE5       30.07F
LEBANON*       PTSUNNY   68  64  88 SE7       30.11F
GLASGOW*       MOCLDY    68  63  84 CALM      30.10F
BOWLING GREEN  MOCLDY    67  65  93 CALM      30.09F FOG
$$

KYZ091>093-OHZ055-061-077-WVZ005-015-034-035-042-290800
...SOUTHERN OHIO/WEST VIRGINIA...

CITY           SKY/WX    TMP DP  RH WIND       PRES   REMARKS
COLUMBUS       CLOUDY    66  65  96 CALM      30.10R
DAYTON         CLOUDY    71  62  73 S7        30.10F
WILMINGTON     MOCLDY    67  62  84 CALM      30.10F
HUNTINGTON       N/A     67  65  93 SE3       30.10S FOG
CHARLESTON       N/A     65  63  93 CALM      30.11S
PINEVILLE*       N/A     60  57  88 MISG      30.21S
BECKLEY          N/A     61  56  83 SE5       30.20S
BLUEFIELD        N/A     64  53  67 S3        30.22S
LOGAN CO APT*    N/A     66  61  82 CALM      30.14S
$$

VAZ002-007-008-TNZ017-027-036-066-071-290800
...SOUTHWEST VIRGINIA/EAST TENNESSEE...

CITY           SKY/WX    TMP DP  RH WIND       PRES   REMARKS
WISE*            N/A     64  50  59 CALM      30.21S
JONESVILLE*      N/A     64  63  94 CALM      30.17S
ABINGDON*        N/A     69  56  65 E3        30.17F
BRISTOL        MOCLDY    65  58  78 CALM      30.14F
SEVIERVILLE*   SUNNY     64  63  94 CALM      30.12R
KNOXVILLE      CLOUDY    73  62  68 W7        30.11
OAK RIDGE      CLOUDY    70  64  81 CALM      30.14R
CROSSVILLE     MOCLDY    65  61  87 CALM      30.17F
NASHVILLE      MOCLDY    68  62  81 CALM      30.10F
$$

...KEY TO REMARKS...
VSB - VISIBILITY IN MILES
WCI - WIND CHILL INDEX
HX  - HEAT INDEX

$$




USA.gov is the U.S. government's official web portal to all federal, state and local government web resources and services.